TimeCDT,TemperatureF,Dew PointF,Humidity,Sea Level PressureIn,VisibilityMPH,Wind Direction,Wind SpeedMPH,Gust SpeedMPH,PrecipitationIn,Events,Conditions,WindDirDegrees,DateUTC
12:15 AM,37.6,23.0,56,29.98,10.0,WNW,5.8,-,N/A,,Clear,290,2012-11-01 05:15:00
12:35 AM,37.6,22.6,55,29.98,10.0,West,5.8,-,N/A,,Clear,280,2012-11-01 05:35:00
12:55 AM,35.2,22.1,59,29.98,10.0,West,6.9,-,N/A,,Clear,270,2012-11-01 05:55:00
1:15 AM,36.7,23.0,58,29.98,10.0,West,6.9,-,N/A,,Clear,280,2012-11-01 06:15:00
1:35 AM,37.2,23.2,57,29.98,10.0,WNW,6.9,-,N/A,,Clear,290,2012-11-01 06:35:00
1:55 AM,36.9,22.8,57,29.98,10.0,West,6.9,-,N/A,,Clear,270,2012-11-01 06:55:00
2:15 AM,37.2,23.2,57,29.98,10.0,West,6.9,-,N/A,,Clear,280,2012-11-01 07:15:00
2:35 AM,36.9,23.9,59,29.98,10.0,West,8.1,-,N/A,,Clear,280,2012-11-01 07:35:00
2:55 AM,38.5,24.1,56,29.98,10.0,WNW,8.1,-,N/A,,Clear,290,2012-11-01 07:55:00
3:15 AM,38.1,24.4,58,29.98,10.0,WNW,8.1,-,N/A,,Clear,290,2012-11-01 08:15:00
3:35 AM,37.4,25.3,62,29.98,10.0,West,6.9,-,N/A,,Clear,280,2012-11-01 08:35:00
3:55 AM,37.0,25.2,62,29.98,10.0,West,6.9,-,N/A,,Clear,280,2012-11-01 08:55:00
4:15 AM,37.0,25.0,62,29.98,10.0,NW,3.5,-,N/A,,Clear,310,2012-11-01 09:15:00
4:35 AM,37.4,23.9,58,29.98,10.0,Calm,Calm,-,N/A,,Clear,0,2012-11-01 09:35:00
5:15 AM,37.2,23.4,57,29.98,10.0,Calm,Calm,-,N/A,,Clear,0,2012-11-01 10:15:00
5:35 AM,37.4,23.5,57,29.99,10.0,West,3.5,-,N/A,,Clear,280,2012-11-01 10:35:00
5:55 AM,36.7,23.9,60,29.99,10.0,WSW,4.6,-,N/A,,Scattered Clouds,250,2012-11-01 10:55:00
6:35 AM,35.6,25.7,67,29.99,10.0,WSW,3.5,-,N/A,,Scattered Clouds,250,2012-11-01 11:35:00
6:55 AM,37.4,26.6,65,30.00,10.0,WSW,6.9,-,N/A,,Mostly Cloudy,240,2012-11-01 11:55:00
7:52 AM,37.4,30.2,75,30.00,10.0,WSW,5.8,-,N/A,,Mostly Cloudy,240,2012-11-01 12:52:00
8:50 AM,42.8,32.0,66,30.01,10.0,WSW,6.9,-,N/A,,Scattered Clouds,250,2012-11-01 13:50:00
9:50 AM,50.0,24.8,37,30.01,10.0,Variable,4.6,-,N/A,,Mostly Cloudy,0,2012-11-01 14:50:00
10:50 AM,53.6,24.8,33,30.02,10.0,Variable,5.8,-,N/A,,Mostly Cloudy,0,2012-11-01 15:50:00
12:50 PM,59.0,24.8,27,29.98,10.0,WSW,5.8,-,N/A,,Overcast,250,2012-11-01 17:50:00
2:55 PM,62.6,28.4,27,29.91,10.0,West,11.5,-,N/A,,Overcast,270,2012-11-01 19:55:00
4:50 PM,62.6,33.8,34,29.89,10.0,SSW,8.1,-,N/A,,Overcast,210,2012-11-01 21:50:00
5:50 PM,60.8,33.8,36,29.88,10.0,SW,8.1,-,N/A,,Mostly Cloudy,230,2012-11-01 22:50:00
6:50 PM,55.4,35.6,47,29.89,10.0,Calm,Calm,-,N/A,,Clear,0,2012-11-01 23:50:00
7:50 PM,53.6,35.6,51,29.89,10.0,Calm,Calm,-,N/A,,Clear,0,2012-11-02 00:50:00
8:50 PM,50.0,39.2,66,29.89,10.0,Calm,Calm,-,N/A,,Clear,0,2012-11-02 01:50:00
9:48 PM,46.4,39.2,76,29.89,10.0,Calm,Calm,-,N/A,,Clear,0,2012-11-02 02:48:00
10:15 PM,45.9,38.7,76,29.89,10.0,Calm,Calm,-,N/A,,Clear,0,2012-11-02 03:15:00
10:35 PM,44.8,38.8,80,29.89,10.0,Calm,Calm,-,N/A,,Clear,0,2012-11-02 03:35:00
10:55 PM,44.6,38.7,80,29.90,10.0,Calm,Calm,-,N/A,,Clear,0,2012-11-02 03:55:00
11:15 PM,44.6,39.0,81,29.90,10.0,Calm,Calm,-,N/A,,Clear,0,2012-11-02 04:15:00
11:35 PM,43.7,38.8,83,29.90,10.0,NNW,3.5,-,N/A,,Clear,340,2012-11-02 04:35:00
11:55 PM,50.2,39.4,66,29.91,10.0,NNW,5.8,-,N/A,,Clear,330,2012-11-02 04:55:00